Home   Weather   Thunder Bay   Past weeks

Flag for Canada Past Weather in Thunder Bay, Ontario, Canada — Yesterday and Last 2 Weeks

Now
1 °F

Light snow. Partly cloudy.


Feels Like: -6 °F
Forecast: -7 / 17 °F
Wind: 3 mph from West

Location: Thunder Bay

Current Time: Dec 11, 2016 at 7:05:38 am

Latest Report: Dec 11, 2016 at 6:00 am


Visibility: 15 mi

Pressure: 30.32 "Hg

Humidity: 85%

Dew Point: -2 °F

Location of Thunder BayLocation

Past Weather in Thunder Bay — Graph

°F

Thunder Bay Temperature Yesterday

Maximum temperature yesterday: 12 °F (at 12:00 am)
Minimum temperature yesterday: 0 °F (at 9:00 pm)
Average temperature yesterday: 7 °F

High & Low Weather Summary for the Past Weeks

 TemperatureHumidityPressure
High43 °F (Nov 28, 3:00 pm)100% (Nov 26, 6:00 am)30.51 "Hg (Nov 26, 6:00 am)
Low-2 °F (Dec 11, 1:00 am)53% (Dec 9, 3:00 pm)29.08 "Hg (Nov 29, 5:00 am)
Average29 °F86%29.91 "Hg
* Reported Nov 26 6:00 am — Dec 11 6:00 am, Thunder Bay, Weather by CustomWeather, © 2016

Note: Actual official high and low records may vary slightly from our data, if they occured in-between our weather recording intervals... More about our weather records

Advertising

Thunder Bay Weather History for the Previous 24 Hours

Scroll right to see more
 ConditionsComfort  
Time TempWeatherWind HumidityBarometerVisibility
6:00 am
Sun, Dec 11
1 °FLight snow. Partly cloudy.3 mph85%30.32 "Hg15 mi
5:00 am1 °FLight snow. Overcast.3 mph78%30.34 "Hg15 mi
4:00 am0 °FPassing clouds.3 mph84%30.34 "Hg15 mi
3:00 am0 °FPassing clouds.5 mph84%30.35 "Hg15 mi
2:00 am-2 °FPassing clouds.6 mph84%30.35 "Hg15 mi
1:00 am-2 °FPassing clouds.5 mph84%30.36 "Hg15 mi
12:00 am1 °FOvercast.5 mph85%30.38 "Hg15 mi
11:00 pm
Sat, Dec 10
3 °FPassing clouds.5 mph78%30.38 "Hg15 mi
10:00 pm3 °FPassing clouds.5 mph78%30.39 "Hg15 mi
9:00 pm0 °FPassing clouds.3 mph84%30.39 "Hg15 mi
8:00 pm1 °FPassing clouds.2 mph85%30.40 "Hg15 mi
7:00 pm3 °FPassing clouds.5 mph78%30.42 "Hg15 mi
6:00 pm5 °FPassing clouds.5 mph72%30.41 "Hg15 mi
5:00 pm7 °FScattered clouds.5 mph66%30.41 "Hg20 mi
4:00 pm9 °FPassing clouds.8 mph66%30.41 "Hg20 mi
3:00 pm10 °FScattered clouds.8 mph56%30.41 "Hg20 mi
2:00 pm10 °FPassing clouds.6 mph56%30.42 "Hg20 mi
1:00 pm9 °FPassing clouds.7 mph61%30.44 "Hg20 mi
12:00 pm9 °FScattered clouds.10 mph61%30.46 "Hg20 mi
11:00 am7 °FScattered clouds.8 mph66%30.48 "Hg20 mi
10:00 am5 °FPassing clouds.8 mph78%30.48 "Hg20 mi
9:00 am3 °FPassing clouds.5 mph85%30.47 "Hg20 mi
8:00 am5 °FLight snow. Passing clouds.8 mph78%30.47 "Hg15 mi
7:00 am7 °FPassing clouds.8 mph78%30.46 "Hg15 mi
Weather by CustomWeather, © 2016

See weather overviewHow to use our weather pages